Location: Newark
(45.5167°N, 11.1667°E)
Time: 23:11:13
(UTC+00:00)

Explorer 7 - Pass Details

Date: 19 December 2019
Orbit: 485 x 679 km, 50.3° (Epoch: 20 January)

Event Time Altitude Azimuth Distance (km) Brightness Sun altitude
Rises 12:12:26 0° 237° (WSW) 2,877 11.2 19.7°
Reaches altitude 10° 12:14:41 10° 235° (SW) 2,003 10.6 19.6°
Maximum altitude 12:19:18 75° 151° (SSE) 677 7.8 19.4°
Drops below altitude 10° 12:24:10 10° 66° (ENE) 2,100 9.5 19.2°
Sets 12:26:34 0° 65° (ENE) 3,028 10.2 19.0°
